Location: Crescent
(42.8242°N, 73.7329°W)
Time: 07:59:18
(UTC+00:00)

Vanguard 1 - Pass Details

Date: 25 February 2026
Orbit: 653 x 3818 km, 34.2° (Epoch: 12 March)

Event Time Altitude Azimuth Distance (km) Brightness Sun altitude
Rises 17:17:54 0° 212° (SSW) 3,443 13.6 38.2°
Reaches altitude 10° 17:20:25 10° 199° (SSW) 2,754 13.6 38.2°
Maximum altitude 17:25:52 26° 143° (SE) 2,354 13.0 38.1°
Drops below altitude 10° 17:34:14 10° 93° (E) 4,374 13.4 37.9°
Sets 17:39:31 0° 83° (E) 5,976 13.9 37.8°
